Weather History for Ottumwa, IA

Change the Weather History Date:

Tuesday, July 15, 2014

  Actual Average Record
Temperature  
Mean Temperature 62 °F 75 °F  
Max Temperature 71 °F 86 °F 115 °F (1936)
Min Temperature 52 °F 65 °F 47 °F (1930)
Degree Days  
Heating Degree Days 3 0  
Month to date heating degree days 10 0  
Since 1 June heating degree days 19 21  
Since 1 July heating degree days 10 0  
Cooling Degree Days 0 10  
Month to date cooling degree days 81 150  
Year to date cooling degree days 406 415  
Since 1 June cooling degree days 295 351  
Growing Degree Days 12 (Base 50)    
Moisture  
Dew Point 51 °F    
Average Humidity 74    
Maximum Humidity 96    
Minimum Humidity 51    
Precipitation  
Precipitation 0.00 in 0.15 in 2.27 in (1984)
Month to date precipitation 2.98 2.29  
Year to date precipitation 21.84 19.91  
Sea Level Pressure  
Sea Level Pressure 30.05 in    
Wind  
Wind Speed 10 mph (NW)    
Max Wind Speed 18 mph    
Max Gust Speed 23 mph    
Visibility 10 miles    
Events      
T = Trace of Precipitation, MM = Missing Value Source: NWS Daily Summary

Daily Weather History Graph

Daily Weather History Graph

Search for Another Location

Airport:

Trip Planner

Search our weather history database for the weather conditions in past years. The results will help you decide how hot, cold, wet, or windy it might be!

Date:

Astronomy

Jul. 15, 2014 Rise Set
Actual Time 5:50 AM CDT 8:40 PM CDT
Civil Twilight 5:17 AM CDT 9:13 PM CDT
Nautical Twilight 4:36 AM CDT 9:54 PM CDT
Astronomical Twilight 3:49 AM CDT 10:41 PM CDT
Moon 10:46 PM CDT (7/15) 9:47 AM CDT (7/15)
Length of Visible Light 15h 55m
Length of Day
14h 50m
Waning Gibbous, 85% of the Moon is Illuminated
Jul 15
Waning Gibbous
Jul 18
Last Quarter
Jul 26
New
Aug 3
First Quarter
Aug 10
Full

Hourly Weather History & Observations

Time (CDT) Temp. Dew Point Humidity Pressure Visibility Wind Dir Wind Speed Gust Speed Precip Events Conditions
12:53 AM 55.0 °F 48.9 °F 80% 30.04 in 10.0 mi West 8.1 mph - N/A   Clear
1:53 AM 55.0 °F 48.9 °F 80% 30.03 in 10.0 mi WNW 9.2 mph - N/A   Clear
2:53 AM 54.0 °F 48.9 °F 83% 30.03 in 10.0 mi WNW 8.1 mph - N/A   Clear
3:53 AM 53.1 °F 48.9 °F 86% 30.03 in 10.0 mi WNW 9.2 mph - N/A   Clear
4:53 AM 53.1 °F 50.0 °F 89% 30.04 in 10.0 mi WNW 10.4 mph - N/A   Clear
5:53 AM 53.1 °F 50.0 °F 89% 30.05 in 10.0 mi NW 11.5 mph - N/A   Clear
6:53 AM 54.0 °F 51.1 °F 90% 30.06 in 10.0 mi NW 11.5 mph - N/A   Clear
7:53 AM 57.0 °F 52.0 °F 83% 30.06 in 10.0 mi NNW 16.1 mph - N/A   Clear
8:27 AM 57.0 °F 51.1 °F 81% 30.09 in 10.0 mi NNW 17.3 mph - N/A   Mostly Cloudy
8:53 AM 57.0 °F 51.1 °F 81% 30.09 in 10.0 mi NNW 12.7 mph - N/A   Overcast
9:16 AM 59.0 °F 51.1 °F 75% 30.08 in 10.0 mi North 10.4 mph - N/A   Overcast
9:53 AM 60.1 °F 51.1 °F 72% 30.09 in 10.0 mi NNW 10.4 mph - N/A   Mostly Cloudy
10:39 AM 62.1 °F 52.0 °F 70% 30.08 in 10.0 mi NW 13.8 mph - N/A   Mostly Cloudy
10:53 AM 64.0 °F 51.1 °F 63% 30.09 in 10.0 mi North 15.0 mph - N/A   Overcast
11:53 AM 64.9 °F 51.1 °F 61% 30.09 in 10.0 mi NNW 13.8 mph - N/A   Overcast
12:53 PM 66.2 °F 51.8 °F 60% 30.08 in 10.0 mi NNW 13.8 mph - N/A   Overcast
1:53 PM 66.0 °F 53.1 °F 63% 30.07 in 10.0 mi WNW 9.2 mph - N/A   Overcast
2:53 PM 68.0 °F 53.1 °F 59% 30.06 in 10.0 mi NNW 11.5 mph - N/A   Overcast
3:53 PM 66.9 °F 52.0 °F 59% 30.04 in 10.0 mi NW 13.8 mph - N/A   Overcast
4:53 PM 68.0 °F 52.0 °F 56% 30.04 in 10.0 mi NNW 12.7 mph - N/A   Mostly Cloudy
5:53 PM 70.0 °F 52.0 °F 53% 30.01 in 10.0 mi NW 11.5 mph - N/A   Mostly Cloudy
6:53 PM 69.1 °F 50.0 °F 51% 30.02 in 10.0 mi NNW 10.4 mph - N/A   Mostly Cloudy
7:53 PM 66.0 °F 52.0 °F 60% 30.03 in 10.0 mi NNW 5.8 mph - N/A   Clear
8:53 PM 59.0 °F 52.0 °F 78% 30.03 in 10.0 mi NW 6.9 mph - N/A   Clear
9:53 PM 57.0 °F 51.1 °F 81% 30.04 in 10.0 mi NW 4.6 mph - N/A   Clear
10:53 PM 54.0 °F 51.1 °F 90% 30.05 in 10.0 mi West 3.5 mph - N/A   Clear
11:53 PM 52.0 °F 50.0 °F 93% 30.06 in 10.0 mi WNW 6.9 mph - N/A   Clear